Lid_Strength_Index
4 4 4 4 4 4 5 4 4 4 4 3 3 3 4 3 3 6 6 5 4 -1 -1 1 1 2 2 4 3 4 10 11 10 9 8 7 8 6 5 6 5 5 6 4 2
4 4 4 4 4 4 4 4 5 4 4 4 4 4 3 3 6 7 3 -1 -1 -2 2 3 4 3 5 5 5 6 9 9 6 6 7 7 8 7 6 6 6 5 4 3 3
4 4 4 4 4 4 4 4 4 5 4 4 4 4 3 3 7 8 -3 -2 -2 -1 4 3 2 4 6 5 5 6 9 7 6 5 5 6 8 6 7 8 6 6 5 4 4
4 4 4 4 4 4 4 4 4 4 4 5 5 4 4 5 14 5 -3 -3 -2 -0 4 5 5 5 7 8 5 8 6 6 6 5 6 7 7 7 7 6 4 4 4 5 5
5 4 4 4 3 4 4 4 4 5 5 5 4 4 6 9 9 4 -3 -1 0 1 5 6 8 7 8 7 6 7 6 5 5 5 7 6 7 7 7 5 4 4 5 5 5
4 4 4 3 4 4 4 4 4 4 4 5 5 4 7 12 6 5 5 2 2 4 6 6 7 6 7 6 7 6 6 6 5 6 7 7 6 6 5 4 4 5 6 6 5
4 3 3 3 3 4 4 4 4 4 4 4 4 5 9 11 6 5 6 7 3 4 6 6 6 7 7 9 7 7 8 7 6 6 8 6 7 7 5 5 5 6 6 6 5
5 4 4 4 3 3 3 2 3 3 4 4 4 7 12 7 6 7 6 7 5 2 4 5 5 6 8 7 8 9 8 10 8 7 6 7 10 7 5 6 6 5 5 5 5
4 5 5 4 4 4 3 3 3 3 2 3 6 8 13 6 8 6 6 7 6 5 4 2 5 6 7 10 11 10 12 11 9 7 7 8 9 6 5 6 6 6 5 5 6
4 4 5 5 5 4 4 4 3 3 3 3 5 10 9 9 7 6 6 6 8 6 7 7 7 8 10 10 14 13 12 10 10 8 8 9 8 7 6 6 7 6 6 5 6
4 4 4 5 5 4 5 7 8 7 6 8 8 9 7 5 4 6 5 7 7 8 10 8 12 12 10 9 9 10 11 10 8 7 8 9 8 8 7 7 7 7 6 5 5
4 3 4 4 5 4 6 9 8 8 10 7 7 8 6 5 8 5 5 8 9 12 10 10 13 9 7 7 8 9 11 10 8 7 8 8 9 7 7 7 7 7 6 6 5
3 3 3 4 4 6 8 8 6 7 11 9 7 7 7 5 8 7 5 7 10 11 11 13 11 7 7 8 9 10 10 10 10 8 7 9 10 9 7 7 6 6 6 5 5
2 2 1 2 7 6 6 4 4 5 14 13 10 8 6 5 8 5 4 6 8 11 10 11 8 8 8 9 9 11 7 8 9 10 13 9 15 11 9 8 7 7 7 6 5
-1 -1 -1 0 6 8 5 4 4 6 21 11 10 6 7 7 7 6 4 6 9 9 9 12 10 9 9 8 8 9 7 8 9 10 12 12 14 12 9 9 8 8 6 6 5
-1 -1 -1 0 2 4 3 2 5 14 21 12 8 9 10 7 7 5 7 5 6 8 8 9 7 8 8 7 7 6 8 8 9 12 16 12 13 13 11 9 8 7 6 5 5
-1 -1 -0 -0 4 1 1 4 14 18 12 12 9 9 9 10 8 7 9 10 11 12 12 10 10 8 7 9 8 8 11 15 17 17 17 11 13 12 9 8 8 7 6 6 5
-1 -1 -0 -0 -0 1 2 10 17 14 14 10 10 10 10 9 9 9 9 11 9 10 12 13 14 10 8 9 10 10 11 15 19 19 15 11 14 12 8 7 7 6 6 5 6
-1 1 1 0 -0 1 6 14 13 12 11 10 11 13 12 9 9 9 10 11 10 9 13 13 13 8 8 8 8 10 12 10 13 13 15 13 11 9 8 8 8 7 6 6 6
2 3 3 0 -0 3 9 13 11 7 8 8 14 13 15 13 12 10 10 9 9 8 8 10 13 9 8 7 8 9 8 13 14 18 19 15 13 13 11 10 8 8 7 7 6
3 6 2 0 1 6 13 11 9 6 6 9 12 14 14 14 12 12 10 8 8 8 8 9 10 10 8 10 11 10 11 12 13 13 17 18 15 10 10 8 8 8 7 6 6
4 9 1 1 9 8 11 9 7 7 6 7 9 12 13 12 13 13 12 9 7 7 10 8 10 12 11 8 7 9 11 12 14 15 13 14 14 8 8 7 7 7 6 7 6
6 7 2 2 12 11 9 8 7 8 8 8 9 10 10 13 14 12 10 7 7 8 9 8 11 15 13 11 9 10 9 10 11 11 14 16 14 8 7 7 7 7 6 6 6
6 10 7 5 6 9 10 10 10 6 7 7 8 8 11 13 12 13 11 9 9 7 7 6 10 12 15 12 10 11 10 9 11 14 14 13 12 10 8 8 7 7 6 6 5
5 8 6 11 10 9 8 9 10 10 7 6 9 9 11 14 14 13 12 11 10 7 9 8 11 11 10 10 9 9 9 9 10 11 12 11 11 9 9 8 7 6 6 6 6
7 8 6 8 7 8 9 10 10 9 8 9 10 9 9 12 13 15 14 14 13 11 12 9 11 10 11 9 10 10 9 9 9 10 10 10 10 8 7 7 7 6 6 6 6
3 3 6 8 9 10 10 9 9 8 7 7 7 8 9 10 9 10 11 11 12 13 13 12 13 11 13 10 10 12 10 9 9 9 9 11 9 7 8 7 7 6 6 6 6